Weather History for Middleton, WI

Change the Weather History Date:

Saturday, July 20, 2013

  Actual Average (KMSN) Record (KMSN)
Temperature  
Mean Temperature 72 °F 71 °F  
Max Temperature 86 °F 82 °F 97 °F (1930)
Min Temperature 59 °F 61 °F 45 °F (1970)
Degree Days  
Heating Degree Days 0 0  
Month to date heating degree days 0  
Since 1 June heating degree days 60  
Since 1 July heating degree days 0  
Cooling Degree Days 7 7  
Month to date cooling degree days 138  
Year to date cooling degree days 288  
Since 1 June cooling degree days 258  
Growing Degree Days 22 (Base 50)    
Moisture  
Dew Point 60 °F    
Average Humidity 64    
Maximum Humidity 93    
Minimum Humidity 38    
Precipitation  
Precipitation 0.00 in 0.13 in 2.53 in (1912)
Month to date precipitation 2.77  
Year to date precipitation 19.14  
Snow  
Snow 0.00 in 0.00 in 0.00 in ()
Month to date snowfall 0.0  
Since 1 June snowfall 0.0  
Since 1 July snowfall 0.0  
Snow Depth -    
Sea Level Pressure  
Sea Level Pressure 29.91 in    
Wind  
Wind Speed 4 mph (NNW)    
Max Wind Speed 12 mph    
Max Gust Speed 18 mph    
Visibility 10 miles    
Events      
T = Trace of Precipitation, MM = Missing Value Source: NWS Daily Summary

Daily Weather History Graph

Daily Weather History Graph

Search for Another Location

Airport:

Trip Planner

Search our weather history database for the weather conditions in past years. The results will help you decide how hot, cold, wet, or windy it might be!

Date:

Astronomy

Jul. 20, 2013 Rise Set
Actual Time 5:36 AM CDT 8:31 PM CDT
Civil Twilight 5:03 AM CDT 9:05 PM CDT
Nautical Twilight 4:20 AM CDT 9:47 PM CDT
Astronomical Twilight 3:30 AM CDT 10:37 PM CDT
Moon 6:34 PM CDT (7/20) 3:16 AM CDT (7/20)
Length of Visible Light 16h 01m
Length of Day
14h 54m
Waxing Gibbous, 94% of the Moon is Illuminated
Jul 20
Waxing Gibbous
Jul 22
Full
Jul 29
Last Quarter
Aug 6
New
Aug 14
First Quarter

Hourly Weather History & Observations

Time (CDT) Temp. Heat Index Dew Point Humidity Pressure Visibility Wind Dir Wind Speed Gust Speed Precip Events Conditions
12:15 AM 69.4 °F - 62.4 °F 78% 29.87 in 10.0 mi NW 4.6 mph - N/A   Clear
12:35 AM 68.0 °F - 61.7 °F 80% 29.87 in 10.0 mi NW 3.5 mph - N/A   Clear
12:55 AM 67.1 °F - 61.7 °F 83% 29.87 in 10.0 mi NNW 4.6 mph - N/A   Clear
1:15 AM 67.3 °F - 61.5 °F 82% 29.87 in 10.0 mi Calm Calm - N/A   Clear
1:35 AM 66.4 °F - 61.3 °F 84% 29.87 in 10.0 mi Calm Calm - N/A   Clear
1:55 AM 65.5 °F - 61.3 °F 86% 29.87 in 10.0 mi Calm Calm - N/A   Clear
2:15 AM 66.6 °F - 61.5 °F 84% 29.87 in 10.0 mi Calm Calm - N/A   Clear
2:35 AM 66.7 °F - 60.8 °F 81% 29.87 in 10.0 mi Calm Calm - N/A   Clear
2:55 AM 66.0 °F - 59.7 °F 80% 29.87 in 10.0 mi Calm Calm - N/A   Clear
3:15 AM 66.7 °F - 59.5 °F 78% 29.86 in 10.0 mi Calm Calm - N/A   Clear
3:35 AM 65.1 °F - 58.3 °F 78% 29.87 in 10.0 mi Calm Calm - N/A   Clear
3:55 AM 63.1 °F - 59.9 °F 89% 29.87 in 10.0 mi Calm Calm - N/A   Clear
4:15 AM 63.3 °F - 58.8 °F 85% 29.87 in 10.0 mi Calm Calm - N/A   Clear
4:35 AM 63.1 °F - 58.3 °F 84% 29.87 in 10.0 mi Calm Calm - N/A   Clear
4:55 AM 59.9 °F - 57.4 °F 91% 29.87 in 10.0 mi WNW 3.5 mph - N/A   Clear
5:15 AM 62.1 °F - 59.2 °F 90% 29.88 in 10.0 mi WNW 3.5 mph - N/A   Clear
5:35 AM 60.6 °F - 56.3 °F 86% 29.88 in 10.0 mi Calm Calm - N/A   Clear
5:55 AM 60.4 °F - 58.5 °F 93% 29.89 in 10.0 mi Calm Calm - N/A   Clear
6:15 AM 60.1 °F - 57.9 °F 93% 29.89 in 10.0 mi Calm Calm - N/A   Clear
6:35 AM 61.7 °F - 59.7 °F 93% 29.90 in 10.0 mi Calm Calm - N/A   Clear
6:55 AM 64.9 °F - 62.4 °F 92% 29.90 in 10.0 mi Calm Calm - N/A   Clear
7:15 AM 68.4 °F - 63.0 °F 83% 29.90 in 10.0 mi Calm Calm - N/A   Clear
7:35 AM 70.7 °F - 63.7 °F 78% 29.90 in 10.0 mi Calm Calm - N/A   Clear
7:55 AM 72.5 °F - 62.2 °F 70% 29.90 in 10.0 mi NW 3.5 mph - N/A   Clear
8:15 AM 74.1 °F - 62.4 °F 67% 29.91 in 10.0 mi WNW 4.6 mph - N/A   Clear
8:35 AM 76.1 °F - 62.4 °F 62% 29.91 in 10.0 mi WNW 3.5 mph - N/A   Clear
8:55 AM 77.7 °F - 62.1 °F 58% 29.92 in 10.0 mi NW 5.8 mph - N/A   Clear
9:15 AM 78.3 °F - 61.0 °F 55% 29.92 in 10.0 mi NW 5.8 mph - N/A   Clear
9:35 AM 79.7 °F - 59.7 °F 50% 29.92 in 10.0 mi NW 5.8 mph - N/A   Clear
9:55 AM 79.7 °F - 59.9 °F 51% 29.93 in 10.0 mi NW 6.9 mph - N/A   Clear
10:15 AM 81.5 °F 81.8 °F 59.2 °F 47% 29.93 in 10.0 mi WNW 4.6 mph - N/A   Clear
10:35 AM 81.9 °F 82.1 °F 59.4 °F 46% 29.93 in 10.0 mi West 6.9 mph - N/A   Clear
10:55 AM 82.8 °F 82.8 °F 59.7 °F 45% 29.94 in 10.0 mi West 5.8 mph - N/A   Scattered Clouds
11:15 AM 82.0 °F 82.2 °F 59.5 °F 46% 29.93 in 10.0 mi Calm Calm - N/A   Scattered Clouds
11:35 AM 83.1 °F 83.3 °F 60.3 °F 46% 29.94 in 10.0 mi West 9.2 mph - N/A   Scattered Clouds
11:55 AM 83.8 °F 83.4 °F 58.6 °F 42% 29.93 in 10.0 mi WNW 6.9 mph - N/A   Scattered Clouds
12:15 PM 82.4 °F 81.9 °F 56.3 °F 41% 29.93 in 10.0 mi NW 8.1 mph - N/A   Scattered Clouds
12:35 PM 82.6 °F 82.9 °F 60.3 °F 47% 29.92 in 10.0 mi West 5.8 mph - N/A   Scattered Clouds
12:55 PM 84.0 °F 84.2 °F 60.4 °F 45% 29.92 in 10.0 mi NW 5.8 mph - N/A   Scattered Clouds
1:15 PM 83.8 °F 83.6 °F 58.8 °F 43% 29.93 in 10.0 mi NW 8.1 mph - N/A   Clear
1:35 PM 84.4 °F 83.8 °F 58.1 °F 41% 29.93 in 10.0 mi WNW 9.2 mph - N/A   Clear
1:55 PM 85.8 °F 85.2 °F 59.2 °F 40% 29.92 in 10.0 mi NNW 6.9 mph - N/A   Scattered Clouds
2:15 PM 85.6 °F 85.2 °F 59.7 °F 41% 29.92 in 10.0 mi NW 8.1 mph - N/A   Scattered Clouds
2:35 PM 84.2 °F 83.7 °F 57.9 °F 41% 29.91 in 10.0 mi NW 5.8 mph - N/A   Scattered Clouds
2:55 PM 85.6 °F 84.7 °F 57.2 °F 38% 29.90 in 10.0 mi NNW 4.6 mph - N/A   Scattered Clouds
3:15 PM 82.6 °F 82.6 °F 59.0 °F 45% 29.90 in 10.0 mi NNW 3.5 mph - N/A   Mostly Cloudy
3:35 PM 82.4 °F 82.9 °F 61.2 °F 48% 29.90 in 10.0 mi Calm Calm - N/A   Overcast
3:55 PM 80.1 °F 81.1 °F 61.3 °F 53% 29.90 in 10.0 mi North 5.8 mph - N/A   Overcast
4:15 PM 81.7 °F 82.6 °F 61.7 °F 51% 29.90 in 10.0 mi North 5.8 mph - N/A   Scattered Clouds
4:35 PM 82.0 °F 82.8 °F 61.7 °F 50% 29.90 in 10.0 mi North 8.1 mph - N/A   Scattered Clouds
4:55 PM 82.8 °F 83.4 °F 62.1 °F 49% 29.89 in 10.0 mi North 5.8 mph - N/A   Scattered Clouds
5:15 PM 84.7 °F 85.4 °F 62.4 °F 47% 29.89 in 10.0 mi NNW 8.1 mph - N/A   Clear
5:35 PM 84.6 °F 84.2 °F 59.4 °F 42% 29.89 in 10.0 mi NW 8.1 mph - N/A   Clear
5:55 PM 84.6 °F 84.2 °F 59.4 °F 42% 29.89 in 10.0 mi NW 11.5 mph 18.4 mph N/A   Scattered Clouds
6:15 PM 82.4 °F 81.8 °F 55.8 °F 40% 29.89 in 10.0 mi North 5.8 mph - N/A   Mostly Cloudy
6:35 PM 81.5 °F 81.0 °F 55.0 °F 40% 29.89 in 10.0 mi NNW 9.2 mph - N/A   Clear
6:55 PM 80.6 °F 80.7 °F 56.8 °F 44% 29.90 in 10.0 mi North 6.9 mph - N/A   Clear
7:15 PM 79.2 °F - 58.8 °F 50% 29.91 in 10.0 mi North 3.5 mph - N/A   Clear
7:35 PM 77.4 °F - 61.0 °F 57% 29.91 in 10.0 mi Calm Calm - N/A   Clear
7:55 PM 76.5 °F - 60.8 °F 58% 29.91 in 10.0 mi Calm Calm - N/A   Scattered Clouds
8:15 PM 73.8 °F - 62.8 °F 68% 29.92 in 10.0 mi East 4.6 mph - N/A   Scattered Clouds
8:35 PM 73.8 °F - 64.4 °F 72% 29.93 in 10.0 mi ESE 8.1 mph - N/A   Clear
8:55 PM 73.9 °F - 63.7 °F 70% 29.94 in 10.0 mi ESE 5.8 mph - N/A   Clear
9:15 PM 72.5 °F - 62.1 °F 70% 29.95 in 10.0 mi ESE 9.2 mph - N/A   Clear
9:35 PM 71.8 °F - 61.7 °F 70% 29.96 in 10.0 mi East 8.1 mph - N/A   Clear
9:55 PM 70.7 °F - 61.7 °F 73% 29.96 in 10.0 mi ESE 11.5 mph - N/A   Clear
10:15 PM 70.0 °F - 61.0 °F 73% 29.97 in 10.0 mi ESE 11.5 mph - N/A   Clear
10:35 PM 69.3 °F - 60.8 °F 74% 29.97 in 10.0 mi ESE 8.1 mph - N/A   Clear
10:55 PM 68.2 °F - 60.8 °F 77% 29.97 in 10.0 mi ESE 5.8 mph - N/A   Clear
11:15 PM 67.8 °F - 60.8 °F 78% 29.98 in 10.0 mi ESE 9.2 mph - N/A   Clear
11:35 PM 67.3 °F - 60.1 °F 78% 29.98 in 10.0 mi East 5.8 mph - N/A   Clear
11:55 PM 67.1 °F - 59.2 °F 76% 29.98 in 10.0 mi ESE 6.9 mph - N/A   Clear